Other Public Products
Issued by NWS Grand Forks, ND

Home | Current Version | Previous Version | Graphics & Text | Print | Product List | Glossary On
Versions: 1 2 3 4 5 6 7 8 9 10 11 12 13 14 15 16 17 18 19 20 21 22 23 24 25 26 27 28 29 30 31 32 33 34 35 36 37 38 39 40 41 42 43 44 45 46 47 48 49 50
000
FPUS83 KFGF 240910
OPUFGF
PRAIRIE TO PINES WEATHER ROUNDUP
NATIONAL WEATHER SERVICE EASTERN NORTH DAKOTA/GRAND FORKS ND
300 AM CST FRI FEB 24 2017

 **SATELLITE DATA USED TO AUGMENT SKY COVER AT AUTOMATED STATIONS**
 *****  WEATHER ACROSS EASTERN NORTH DAKOTA  *****

CITY           SKY/WX    TMP DP  RH WIND       PRES   REMARKS
GRAND FORKS    FAIR      17   9  70 N8        30.14F WCI   7
GRAND FORKS AF FAIR      16  12  84 N8        30.14F WCI   6
GRAND CITY NWS NOT AVBL
BUXTON         NOT AVBL
DEVILS LAKE    CLOUDY    17  13  84 CALM      30.13F
FARGO          FAIR      20  12  71 N20G28    30.08F WCI   4
WAHPETON ARPT  FAIR      21  12  68 N17G23    30.05S WCI   7
$$

 *****  WEATHER ACROSS CENTRAL AND WESTERN NORTH DAKOTA  *****

CITY           SKY/WX    TMP DP  RH WIND       PRES   REMARKS
JAMESTOWN      FAIR      18  15  88 N12       30.09F WCI   5
BISMARCK       FAIR      15  11  83 W6        30.16S WCI   6
MINOT          CLOUDY    25  18  74 NW10      30.12F WCI  15
MINOT AFB      NOT AVBL
GARRISON         N/A     12   8  84 CALM      30.13F
WILLISTON      MOCLDY    12   8  84 SW5       30.15F WCI   4
DICKINSON      FAIR       9   6  88 CALM      30.09S
HETTINGER      FAIR      14   9  80 N9        30.09F WCI   2
$$

 *****  OTHER OBSERVATIONS NORTHEAST NORTH DAKOTA  *****

CITY           SKY/WX    TMP DP  RH WIND       PRES   REMARKS
WALHALLA       NOT AVBL
LANGDON        NOT AVBL
CAVALIER         N/A     14  10  85 E3        30.17F
GRAFTON        CLOUDY    16  14  93 N5        30.19S WCI   9
CANDO          NOT AVBL
FORT TOTTEN      N/A     16  15  96 CALM      29.95S
ROLLA          FAIR      18  16  93 NW15      30.11S WCI   3
RUGBY            N/A      9   7  92 W5        30.13S WCI   0
 ***** THE ABOVE OBSERVATIONS ARE NON NWS ARE NOT QUALITY
        CONTROLLED AND MAY MIS-REPORT RAIN FOR SNOW...
$$

 *****  OTHER OBSERVATIONS SOUTHEAST NORTH DAKOTA *****

CITY           SKY/WX    TMP DP  RH WIND       PRES   REMARKS
COOPERSTOWN    FAIR      18  18 100 N6        30.11F WCI   9
VALLEY CITY    FAIR      18  18 100 N12       30.11F WCI   5
OAKES          NOT AVBL
GWINNER        FAIR      21  18  86 N15G21    30.06F WCI   8
SHEYENNE NWR     N/A     19  11  70 NE12      29.95S WCI   7
BUFFALO        NOT AVBL
WYNDMERE       NOT AVBL
 ***** THE ABOVE OBSERVATIONS ARE NON NWS ARE NOT QUALITY
       CONTROLLED AND MAY MIS-REPORT RAIN FOR SNOW...
$$

  *****  WEATHER ACROSS NORTHERN MINNESOTA  *****

CITY           SKY/WX    TMP DP  RH WIND       PRES   REMARKS
FLAG ISLAND    FAIR       7   3  85 NW8       30.11F WCI  -6
WARROAD        FAIR       7   1  78 NW6       30.12S WCI  -3
ROSEAU         FAIR       7   1  78 NW5       30.13F WCI  -2
HALLOCK        FAIR      12   9  85 CALM      30.17S
THF RVR FALLS  FAIR      12   6  77 N9        30.12F WCI   0
HALSTAD          N/A     19  12  75 N16         N/A  WCI   4
FOSSTON        FAIR      10   7  85 N12       30.07F WCI  -4
BAUDETTE       FAIR       7   2  80 N7        30.08F WCI  -5
WASKISH        FAIR      10   7  85 N5        30.07F WCI   2
CROOKSTON      FAIR      18  10  73 NE9       30.14S WCI   6
$$
  *****  WEATHER ACROSS CENTRAL AND WEST MINNESOTA  *****

CITY           SKY/WX    TMP DP  RH WIND       PRES   REMARKS
BEMIDJI        FAIR      11   6  79 N8        30.04F WCI   0
PARK RAPIDS    FAIR      15   5  64 N13       29.99F WCI   1
WADENA         FAIR      16  10  79 N15       29.98F WCI   1
DETROIT LAKES  FAIR      18  10  73 N9G18     30.02F WCI   6
MOORHEAD       FAIR      19  10  68 N17       30.08F WCI   4
FERGUS FALLS   FAIR      18   9  68 NE15      30.06F WCI   3
ELBOW LAKE     FAIR      19  12  73 E17G25    29.99S WCI   4
MORRIS MN      CLOUDY    21  16  79 N18G25    29.96S WCI   6
STAPLES        FAIR      18   9  68 N8G17     29.97F WCI   7
WHEATON        FAIR      19  12  73 N17G24    30.03S WCI   4
$$
  *****  WEATHER ELSEWHERE ACROSS MINNESOTA  *****

CITY           SKY/WX    TMP DP  RH WIND       PRES   REMARKS
DULUTH         FAIR      19  13  77 N9        29.93F WCI   8
INTRNTL FALLS  FAIR      12   3  67 N5        30.06S WCI   4
ELY            FAIR      14   7  73 N5        29.98F WCI   6
CLOQUET        FAIR      19  12  73 N9        29.93F WCI   9
BRAINERD       FAIR      18  10  71 N16       29.96F WCI   3
HIBBING        FAIR      15   9  76 N9        29.98S WCI   3
ALEXANDRIA     FAIR      20  11  68 NE20G29   29.94F WCI   4
SAINT CLOUD    FAIR      22  14  71 N17G26    29.91F WCI   8
MINNEAPOLIS    CLOUDY    28  17  63 N18G25    29.85R WCI  15
$$

  *****  WEATHER ACROSS SOUTH DAKOTA  *****

CITY           SKY/WX    TMP DP  RH WIND       PRES   REMARKS
SIOUX FALLS    CLOUDY    26  23  88 N22G32    29.83S WCI  12
BROOKINGS      CLOUDY    22  18  85 N23G29    29.87R WCI   6
WATERTOWN      MOCLDY    19  13  77 N22G33    29.92R WCI   2
HURON          FAIR      22  15  75 N16G31    29.97F WCI   8
SISSETON         N/A     21  14  74 N26       30.01S WCI   4
ABERDEEN       FAIR      20  12  71 N23G31    30.05R WCI   3
MITCHELL       CLOUDY    24  19  81 N23       29.94S WCI   9
PIERRE         CLOUDY    23  15  71 NE17G29   30.02R WCI   9
MOBRIDGE       FAIR      22  14  71 N15       30.06R WCI   9
RAPID CITY     LGT SNOW  24  21  88 N13       29.99S FOG     WCI  12
$$

  *****  SOME WEATHER IN NEARBY STATES *****

CITY           SKY/WX    TMP DP  RH WIND       PRES   REMARKS
GLASGOW MT     CLOUDY    24  19  81 SE13      30.09S WCI  12
GREAT FALLS MT CLOUDY    24  21  88 CALM      29.95F
CHEYENNE WY    LGT SNOW  13  10  88 NW5       29.80F FOG     WCI   5
SCOTTSBLUFF NE LGT SNOW  22  17  81 N14       29.91R WCI   9
OMAHA NE       CLOUDY    35  29  78 N21G28    29.63R WCI  24
DES MOINES IA  CLOUDY    36  33  89 NE22G29   29.53R
DAVENPORT IA   CLOUDY    38  36  92 NE17G25   29.48F
CHICAGO IL     CLOUDY    40  38  93 NE13      29.56F
EAU CLAIRE WI  LGT SNOW  28  26  92 NE16G24   29.76F FOG     WCI  16
LA CROSSE WI   LGT SNOW  34  30  85 NE21G28   29.65F FOG     WCI  22
$$

  *****  SOME NATIONAL WEATHER *****

CITY           SKY/WX    TMP DP  RH WIND       PRES   REMARKS
LA GUARDIA NY  FAIR      53  47  79 S7        29.91S
RALEIGH NC     FAIR      52  49  89 CALM      29.93R
ATLANTA GA     FAIR      58  52  80 SE5       29.86F
NEW ORLEANS LA CLOUDY    66  64  93 SE7       29.77F
OKLAHOMA CITY  FAIR      42  35  76 N22G28    29.71R
ALBUQUERQUE NM FAIR      35  16  45 SW7       29.85R
SALT LAKE CITY FLURRIES  28  23  81 N3        29.93R
LOS ANGELES CA FAIR      49  19  30 N6        30.11S
BOISE ID       CLOUDY    32  32 100 NW13      30.01R WCI  22
SEATTLE WA     CLOUDY    35  32  88 S7        30.16F
$$

*** WEATHER ACROSS MANITOBA...SASKATCHEWAN AND ONTARIO ***
                ***ONTARIO***

CITY           SKY/WX    TMP DP  RH WIND       PRES   REMARKS
GERALDTON      PTCLDY     1  -6  71 N5        30.07S WCI  -8
THUNDER BAY    PTCLDY    12   5  73 NE10      30.07F WCI  -1
SIOUX LOOKOUT  CLEAR      1  -2  85 VRB2      30.08F
TORONTO        MOCLDY    39  34  81 NE8       29.86F
BIG TROUT LK   CLOUDY   -11 -15  84 N5        30.18S WCI -23
PICKLE LAKE    NOT AVBL
DRYDEN         CLEAR      3   0  85 NE2       30.06F
KENORA         NOT AVBL
$$
                *** MANITOBA***

CITY           SKY/WX    TMP DP  RH WIND       PRES   REMARKS
BRANDON        PTCLDY    12   7  79 NW8       30.14S WCI   1
DAUPHIN        FLURRIES  14   9  79 NE5       30.20S WCI   6
ISLAND LAKE    FLURRIES  -8 -11  84 CALM      30.22F
PILOT MOUND      N/A     19  14  79 NW9         N/A  WCI   9
THE PAS        FLURRIES   3  -2  78 E3        30.21S
THOMPSON       PTCLDY   -15 -20  76 CALM      30.27F
WINNIPEG       CLOUDY    10   3  72 N5        30.18F WCI   2
LYNN LAKE      MOCLDY   -18 -24  76 CALM      30.20S
CHURCHILL      MOCLDY   -15 -20  76 NW6       30.39S WCI -29
GILLAM         FLURRIES -13 -18  77 NE5       30.32S WCI -25
$$
                ***SASKATCHEWAN***

CITY           SKY/WX    TMP DP  RH WIND       PRES   REMARKS
ESTEVAN        MOCLDY    23  18  80 W3        30.13F
KINDERSLEY     CLOUDY    19  18  93 S6        30.06S WCI  11
LLOYDMINSTER   LGT SNOW  18  16  93 SW5       30.05S WCI  11
PRINCE ALBERT  CLOUDY     5   1  85 CALM      30.13R
REGINA         MOCLDY    21  19  93 SW7       30.11F WCI  13
YORKTON        MOCLDY    12   9  85 S6        30.13F WC



USA.gov is the U.S. government's official web portal to all federal, state and local government web resources and services.